EWG79B LEPA-EDDG

Flight info

Callsign EWG79B
Flight time 1h 59m
Altitude 36000
Route MEROS N853 LUMAS DCT MAXIR DCT LUSOL DCT BODRU DCT OKTET DCT IRMAR DCT KINES DCT VANAS DCT MOBLO DCT UBIMA DCT GILIR DCT PENDU DCT IXILU DCT EPL DCT ROUSY DCT DIK/N0452F370 T856 DEPOK/N0403F230 T856 QATJA N853 HMM HMM1A
Aircraft A320/M-SDE2E3FGIJ1RWXYZ/HB1

Departure

Time 2026-05-08 18:32
Airport Palma de Mallorca Airport (LEPA)

Arrival

Time 2026-05-08 20:32
Airport Münster Osnabrück Airport (EDDG)
Time Latitude Longitude Altitude Speed Heading
2026-05-08 17:34 39.55021 2.73488 38 ft 0 kts 165°
2026-05-08 18:11 39.55029 2.73486 19 ft 4 kts 162°
2026-05-08 18:11 39.55052 2.73472 40 ft 4 kts 136°
2026-05-08 18:11 39.55062 2.73448 39 ft 4 kts 67°
2026-05-08 18:12 39.55061 2.73443 38 ft 0 kts 59°
2026-05-08 18:19 39.55064 2.73450 39 ft 4 kts 59°
2026-05-08 18:19 39.55082 2.73489 38 ft 5 kts 59°
2026-05-08 18:19 39.55097 2.73520 38 ft 4 kts 59°
2026-05-08 18:20 39.55121 2.73572 37 ft 9 kts 59°
2026-05-08 18:20 39.55162 2.73661 37 ft 12 kts 58°
2026-05-08 18:20 39.55184 2.73721 36 ft 1 kts 87°
2026-05-08 18:20 39.55181 2.73739 38 ft 0 kts 105°
2026-05-08 18:21 39.55169 2.73759 38 ft 5 kts 130°
2026-05-08 18:21 39.55181 2.73819 38 ft 9 kts 63°
2026-05-08 18:21 39.55138 2.73879 38 ft 12 kts 148°
2026-05-08 18:21 39.55055 2.73945 38 ft 15 kts 148°
2026-05-08 18:22 39.54966 2.74015 38 ft 14 kts 149°
2026-05-08 18:22 39.54922 2.74050 36 ft 0 kts 148°
2026-05-08 18:22 39.54921 2.74050 37 ft 2 kts 148°
2026-05-08 18:22 39.54898 2.74069 38 ft 7 kts 148°
2026-05-08 18:23 39.54835 2.74119 38 ft 12 kts 148°
2026-05-08 18:23 39.54766 2.74082 38 ft 16 kts 237°
2026-05-08 18:23 39.54714 2.73969 38 ft 15 kts 238°
2026-05-08 18:23 39.54660 2.73857 38 ft 14 kts 238°
2026-05-08 18:24 39.54610 2.73750 38 ft 14 kts 238°
2026-05-08 18:24 39.54561 2.73647 38 ft 13 kts 238°
2026-05-08 18:24 39.54513 2.73544 38 ft 15 kts 238°
2026-05-08 18:24 39.54460 2.73433 38 ft 13 kts 238°
2026-05-08 18:25 39.54416 2.73338 38 ft 12 kts 238°
2026-05-08 18:25 39.54378 2.73259 38 ft 9 kts 238°
2026-05-08 18:25 39.54348 2.73195 38 ft 7 kts 238°
2026-05-08 18:25 39.54324 2.73144 38 ft 6 kts 238°
2026-05-08 18:26 39.54296 2.73085 38 ft 12 kts 238°
2026-05-08 18:26 39.54248 2.72986 38 ft 13 kts 238°
2026-05-08 18:26 39.54202 2.72907 38 ft 8 kts 206°
2026-05-08 18:26 39.54164 2.72931 38 ft 6 kts 122°
2026-05-08 18:27 39.54154 2.72971 38 ft 4 kts 102°
2026-05-08 18:27 39.54152 2.72981 38 ft 0 kts 102°
2026-05-08 18:29 39.54151 2.73035 38 ft 10 kts 89°
2026-05-08 18:29 39.54152 2.73119 38 ft 8 kts 90°
2026-05-08 18:29 39.54135 2.73181 38 ft 6 kts 108°
2026-05-08 18:29 39.54144 2.73211 38 ft 0 kts 55°
2026-05-08 18:31 39.54223 2.73371 38 ft 57 kts 59°
2026-05-08 18:32 39.54544 2.74056 37 ft 120 kts 58°
2026-05-08 18:32 39.55081 2.75195 52 ft 168 kts 60°
2026-05-08 18:32 39.55677 2.76443 801 ft 158 kts 61°
2026-05-08 18:32 39.56227 2.77671 1496 ft 158 kts 63°
2026-05-08 18:33 39.56792 2.78987 2175 ft 158 kts 63°
2026-05-08 18:33 39.57313 2.80238 2548 ft 174 kts 64°
2026-05-08 18:33 39.57916 2.81709 2932 ft 190 kts 64°
2026-05-08 18:33 39.58568 2.83271 3289 ft 205 kts 63°
2026-05-08 18:34 39.59330 2.84962 3669 ft 218 kts 59°
2026-05-08 18:34 39.60139 2.86663 4247 ft 223 kts 59°
2026-05-08 18:34 39.60953 2.88393 4936 ft 227 kts 59°
2026-05-08 18:34 39.61786 2.90164 5564 ft 234 kts 59°
2026-05-08 18:35 39.62662 2.92013 5950 ft 252 kts 59°
2026-05-08 18:35 39.63594 2.94074 6267 ft 276 kts 61°
2026-05-08 18:35 39.64567 2.96274 6842 ft 286 kts 61°
2026-05-08 18:35 39.65562 2.98548 7563 ft 292 kts 61°
2026-05-08 18:36 39.66567 3.00862 8313 ft 297 kts 60°
2026-05-08 18:36 39.67588 3.03217 9053 ft 302 kts 60°
2026-05-08 18:36 39.68631 3.05623 9742 ft 308 kts 59°
2026-05-08 18:36 39.69713 3.08127 10256 ft 321 kts 59°
2026-05-08 18:37 39.70838 3.10729 10445 ft 344 kts 60°
2026-05-08 18:37 39.72051 3.13538 10606 ft 367 kts 60°
2026-05-08 18:37 39.73319 3.16481 11032 ft 378 kts 60°
2026-05-08 18:37 39.74610 3.19486 11607 ft 384 kts 60°
2026-05-08 18:38 39.75924 3.22537 12227 ft 389 kts 60°
2026-05-08 18:38 39.77283 3.25609 12832 ft 394 kts 56°
2026-05-08 18:38 39.78974 3.28421 13421 ft 398 kts 47°
2026-05-08 18:38 39.80801 3.31147 14031 ft 402 kts 47°
2026-05-08 18:39 39.82645 3.33903 14581 ft 406 kts 47°
2026-05-08 18:39 39.84510 3.36693 15121 ft 410 kts 46°
2026-05-08 18:39 39.86408 3.39542 15671 ft 414 kts 46°
2026-05-08 18:39 39.88298 3.42387 16207 ft 417 kts 46°
2026-05-08 18:40 39.90200 3.45255 16734 ft 421 kts 46°
2026-05-08 18:40 39.92124 3.48156 17245 ft 425 kts 46°
2026-05-08 18:40 39.94068 3.51084 17754 ft 429 kts 46°
2026-05-08 18:40 39.96023 3.54030 18246 ft 432 kts 46°
2026-05-08 18:41 39.97997 3.57010 18693 ft 436 kts 46°
2026-05-08 18:41 39.99984 3.60009 19125 ft 439 kts 46°
2026-05-08 18:41 40.01985 3.63029 19558 ft 442 kts 46°
2026-05-08 18:41 40.03998 3.66080 19989 ft 445 kts 46°
2026-05-08 18:42 40.06017 3.69149 20435 ft 448 kts 46°
2026-05-08 18:42 40.08052 3.72244 20839 ft 451 kts 46°
2026-05-08 18:42 40.10101 3.75363 21249 ft 454 kts 46°
2026-05-08 18:42 40.12166 3.78502 21660 ft 456 kts 46°
2026-05-08 18:43 40.14240 3.81654 22069 ft 459 kts 46°
2026-05-08 18:43 40.16322 3.84820 22498 ft 461 kts 46°
2026-05-08 18:43 40.18426 3.88028 22906 ft 464 kts 46°
2026-05-08 18:43 40.20526 3.91239 23316 ft 467 kts 46°
2026-05-08 18:44 40.22667 3.94446 23675 ft 468 kts 41°
2026-05-08 18:44 40.25174 3.97088 23979 ft 461 kts 26°
2026-05-08 18:44 40.28062 3.98828 24284 ft 454 kts 14°
2026-05-08 18:44 40.31085 4.00224 24608 ft 456 kts 13°
2026-05-08 18:45 40.34091 4.01590 24930 ft 458 kts 13°
2026-05-08 18:45 40.37105 4.02953 25236 ft 460 kts 13°
2026-05-08 18:45 40.40135 4.04327 25562 ft 462 kts 13°
2026-05-08 18:45 40.43176 4.05713 25889 ft 464 kts 13°
2026-05-08 18:46 40.46234 4.07112 26190 ft 466 kts 13°
2026-05-08 18:46 40.49303 4.08521 26499 ft 468 kts 13°
2026-05-08 18:46 40.52386 4.09937 26805 ft 470 kts 13°
2026-05-08 18:46 40.55484 4.11363 27100 ft 472 kts 13°
2026-05-08 18:47 40.58588 4.12797 27386 ft 474 kts 13°
2026-05-08 18:47 40.61710 4.14238 27664 ft 476 kts 13°
2026-05-08 18:47 40.64839 4.15682 27941 ft 478 kts 13°
2026-05-08 18:47 40.67984 4.17134 28205 ft 480 kts 13°
2026-05-08 18:48 40.71138 4.18592 28461 ft 481 kts 13°
2026-05-08 18:48 40.74303 4.20060 28729 ft 483 kts 14°
2026-05-08 18:48 40.77477 4.21535 28991 ft 485 kts 14°
2026-05-08 18:48 40.80664 4.23015 29238 ft 487 kts 14°
2026-05-08 18:49 40.83910 4.24521 29559 ft 487 kts 14°
2026-05-08 18:49 40.87105 4.26004 29901 ft 487 kts 14°
2026-05-08 18:49 40.90296 4.27486 30235 ft 486 kts 14°
2026-05-08 18:49 40.93485 4.28973 30528 ft 486 kts 14°
2026-05-08 18:50 40.96673 4.30465 30821 ft 485 kts 14°
2026-05-08 18:50 40.99859 4.31956 31106 ft 485 kts 14°
2026-05-08 18:50 41.03036 4.33442 31376 ft 485 kts 13°
2026-05-08 18:50 41.06222 4.34930 31689 ft 485 kts 14°
2026-05-08 18:51 41.09399 4.36417 31952 ft 485 kts 14°
2026-05-08 18:51 41.12587 4.37914 32230 ft 485 kts 14°
2026-05-08 18:51 41.15770 4.39410 32508 ft 485 kts 14°
2026-05-08 18:51 41.18953 4.40905 32782 ft 485 kts 14°
2026-05-08 18:52 41.22131 4.42396 33073 ft 485 kts 14°
2026-05-08 18:52 41.25311 4.43892 33361 ft 484 kts 13°
2026-05-08 18:52 41.28484 4.45387 33650 ft 484 kts 14°
2026-05-08 18:52 41.31659 4.46884 33914 ft 484 kts 14°
2026-05-08 18:53 41.34835 4.48380 34162 ft 484 kts 14°
2026-05-08 18:53 41.38016 4.49879 34389 ft 484 kts 14°
2026-05-08 18:53 41.41234 4.51397 34619 ft 484 kts 14°
2026-05-08 18:53 41.44372 4.52879 34835 ft 485 kts 14°
2026-05-08 18:54 41.47592 4.54404 35070 ft 485 kts 14°
2026-05-08 18:54 41.50771 4.55913 35263 ft 485 kts 14°
2026-05-08 18:54 41.53917 4.57410 35434 ft 486 kts 14°
2026-05-08 18:54 41.56062 4.58435 35568 ft 486 kts 15°
2026-05-08 18:55 41.62419 4.61475 35985 ft 485 kts 14°
2026-05-08 18:55 41.65606 4.62998 36049 ft 486 kts 14°
2026-05-08 18:56 41.71967 4.66060 36054 ft 487 kts 18°
2026-05-08 18:56 41.78163 4.69801 36054 ft 489 kts 22°
2026-05-08 18:57 41.84234 4.73931 36054 ft 490 kts 24°
2026-05-08 18:57 41.90304 4.78084 36054 ft 489 kts 23°
2026-05-08 18:58 41.96404 4.82119 36063 ft 488 kts 22°
2026-05-08 18:58 42.02515 4.86111 36061 ft 488 kts 22°
2026-05-08 18:59 42.08614 4.90117 36058 ft 488 kts 22°
2026-05-08 18:59 42.14745 4.94180 36075 ft 488 kts 24°
2026-05-08 19:00 42.20819 4.98230 36072 ft 486 kts 24°
2026-05-08 19:00 42.26882 5.02270 36075 ft 485 kts 24°
2026-05-08 19:01 42.32932 5.06299 36079 ft 484 kts 24°
2026-05-08 19:01 42.38968 5.10326 36068 ft 484 kts 24°
2026-05-08 19:02 42.45004 5.14370 36061 ft 484 kts 24°
2026-05-08 19:02 42.51027 5.18421 36069 ft 483 kts 25°
2026-05-08 19:03 42.57049 5.22475 36063 ft 483 kts 25°
2026-05-08 19:03 42.63074 5.26539 36061 ft 484 kts 25°
2026-05-08 19:04 42.69103 5.30611 36061 ft 483 kts 25°
2026-05-08 19:04 42.75119 5.34684 36051 ft 483 kts 25°
2026-05-08 19:05 42.81124 5.38763 36057 ft 482 kts 25°
2026-05-08 19:05 42.87122 5.42842 36060 ft 481 kts 25°
2026-05-08 19:06 42.93148 5.46955 36067 ft 480 kts 25°
2026-05-08 19:06 42.99121 5.51042 36062 ft 480 kts 25°
2026-05-08 19:07 43.05081 5.55125 36061 ft 479 kts 25°
2026-05-08 19:07 43.11049 5.59224 36072 ft 479 kts 25°
2026-05-08 19:08 43.17006 5.63319 36060 ft 479 kts 25°
2026-05-08 19:08 43.22969 5.67432 36065 ft 480 kts 25°
2026-05-08 19:09 43.28928 5.71547 36063 ft 479 kts 25°
2026-05-08 19:09 43.34878 5.75657 36072 ft 478 kts 25°
2026-05-08 19:10 43.40807 5.79772 36071 ft 477 kts 25°
2026-05-08 19:10 43.46724 5.83890 36065 ft 476 kts 25°
2026-05-08 19:11 43.52631 5.88004 36074 ft 476 kts 25°
2026-05-08 19:11 43.58574 5.92155 36057 ft 475 kts 25°
2026-05-08 19:12 43.64474 5.96282 36049 ft 475 kts 25°
2026-05-08 19:12 43.70368 6.00406 36054 ft 475 kts 25°
2026-05-08 19:13 43.76258 6.04547 36053 ft 475 kts 25°
2026-05-08 19:13 43.82143 6.08704 36048 ft 475 kts 25°
2026-05-08 19:14 43.88023 6.12864 36057 ft 475 kts 25°
2026-05-08 19:14 43.93908 6.17025 36061 ft 474 kts 25°
2026-05-08 19:15 43.99785 6.21188 36059 ft 474 kts 25°
2026-05-08 19:15 44.05650 6.25360 36070 ft 474 kts 25°
2026-05-08 19:16 44.11564 6.29575 36076 ft 474 kts 25°
2026-05-08 19:16 44.17426 6.33763 36070 ft 474 kts 25°
2026-05-08 19:17 44.23294 6.37967 36068 ft 474 kts 25°
2026-05-08 19:17 44.29163 6.42177 36078 ft 474 kts 25°
2026-05-08 19:18 44.35027 6.46398 36071 ft 474 kts 25°
2026-05-08 19:18 44.40883 6.50614 36069 ft 473 kts 24°
2026-05-08 19:19 44.46736 6.54833 36091 ft 473 kts 24°
2026-05-08 19:19 44.52584 6.59067 36091 ft 473 kts 24°
2026-05-08 19:20 44.58426 6.63316 36094 ft 473 kts 24°
2026-05-08 19:20 44.64264 6.67568 36090 ft 473 kts 24°
2026-05-08 19:21 44.70107 6.71813 36094 ft 473 kts 24°
2026-05-08 19:21 44.75995 6.76038 36089 ft 471 kts 20°
2026-05-08 19:22 44.82219 6.78485 36103 ft 461 kts
2026-05-08 19:22 44.88556 6.78492 36098 ft 454 kts 353°
2026-05-08 19:23 44.94871 6.78066 36091 ft 454 kts 353°
2026-05-08 19:23 45.01191 6.77654 36098 ft 454 kts 353°
2026-05-08 19:24 45.07503 6.77248 36097 ft 454 kts 353°
2026-05-08 19:24 45.13819 6.76835 36097 ft 455 kts 353°
2026-05-08 19:25 45.20133 6.76415 36105 ft 454 kts 352°
2026-05-08 19:25 45.26445 6.75989 36107 ft 453 kts 352°
2026-05-08 19:26 45.32741 6.75567 36101 ft 453 kts 352°
2026-05-08 19:26 45.38022 6.75215 36110 ft 453 kts 352°
2026-05-08 19:27 45.44324 6.74798 36107 ft 453 kts 352°
2026-05-08 19:27 45.50604 6.74378 36106 ft 452 kts 352°
2026-05-08 19:28 45.56889 6.73949 36102 ft 452 kts 352°
2026-05-08 19:28 45.63196 6.73508 36120 ft 450 kts 352°
2026-05-08 19:29 45.69450 6.73071 36106 ft 449 kts 352°
2026-05-08 19:29 45.75697 6.72641 36105 ft 449 kts 352°
2026-05-08 19:30 45.81936 6.72214 36120 ft 448 kts 352°
2026-05-08 19:30 45.88144 6.71792 36112 ft 446 kts 352°
2026-05-08 19:31 45.94343 6.71374 36092 ft 445 kts 352°
2026-05-08 19:31 46.00526 6.70943 36104 ft 445 kts 352°
2026-05-08 19:32 46.06697 6.70520 36097 ft 443 kts 352°
2026-05-08 19:32 46.12820 6.69795 36095 ft 437 kts 343°
2026-05-08 19:33 46.18602 6.67224 36080 ft 431 kts 336°
2026-05-08 19:33 46.24274 6.64458 36077 ft 430 kts 336°
2026-05-08 19:34 46.29946 6.61705 36066 ft 430 kts 336°
2026-05-08 19:34 46.35613 6.58950 36063 ft 429 kts 336°
2026-05-08 19:35 46.41280 6.56184 36051 ft 429 kts 336°
2026-05-08 19:35 46.46924 6.53409 36050 ft 429 kts 336°
2026-05-08 19:36 46.52574 6.50634 36046 ft 428 kts 336°
2026-05-08 19:36 46.58220 6.47864 36046 ft 428 kts 336°
2026-05-08 19:37 46.63865 6.45086 36034 ft 429 kts 336°
2026-05-08 19:37 46.69511 6.42285 36032 ft 429 kts 336°
2026-05-08 19:38 46.75167 6.39477 36036 ft 429 kts 336°
2026-05-08 19:38 46.80869 6.36640 36052 ft 430 kts 336°
2026-05-08 19:39 46.86525 6.33834 36051 ft 429 kts 336°
2026-05-08 19:39 46.92213 6.30999 36050 ft 429 kts 336°
2026-05-08 19:40 46.98093 6.29237 36044 ft 436 kts 348°
2026-05-08 19:40 47.04123 6.28219 36050 ft 436 kts 348°
2026-05-08 19:41 47.10155 6.27206 36042 ft 436 kts 348°
2026-05-08 19:41 47.16223 6.26178 36028 ft 436 kts 348°
2026-05-08 19:42 47.22260 6.25147 36044 ft 436 kts 348°
2026-05-08 19:42 47.28292 6.24099 36034 ft 437 kts 348°
2026-05-08 19:43 47.34328 6.23060 36030 ft 437 kts 348°
2026-05-08 19:43 47.40362 6.22015 36029 ft 436 kts 348°
2026-05-08 19:44 47.46390 6.20957 36047 ft 436 kts 348°
2026-05-08 19:44 47.52420 6.19920 36042 ft 436 kts 348°
2026-05-08 19:45 47.58443 6.18883 36042 ft 436 kts 348°
2026-05-08 19:45 47.64473 6.17835 36073 ft 436 kts 348°
2026-05-08 19:46 47.70492 6.16780 36065 ft 436 kts 348°
2026-05-08 19:46 47.79566 6.15206 36053 ft 436 kts 348°
2026-05-08 19:47 47.85520 6.14174 36052 ft 432 kts 348°
2026-05-08 19:47 47.91555 6.13102 36033 ft 440 kts 348°
2026-05-08 19:48 47.97652 6.12024 36036 ft 442 kts 348°
2026-05-08 19:48 48.03804 6.10933 36047 ft 442 kts 348°
2026-05-08 19:49 48.09914 6.09844 36048 ft 441 kts 348°
2026-05-08 19:49 48.16007 6.08762 36052 ft 441 kts 348°
2026-05-08 19:50 48.22104 6.07683 36053 ft 441 kts 348°
2026-05-08 19:50 48.28196 6.06605 36086 ft 441 kts 349°
2026-05-08 19:51 48.34339 6.06060 36067 ft 446 kts 357°
2026-05-08 19:51 48.40546 6.06335 36057 ft 446 kts 357°
2026-05-08 19:52 48.46758 6.06643 36052 ft 447 kts 357°
2026-05-08 19:52 48.53018 6.06960 36087 ft 447 kts 357°
2026-05-08 19:53 48.58192 6.07205 36071 ft 448 kts 357°
2026-05-08 19:53 48.64407 6.07490 36085 ft 447 kts 357°
2026-05-08 19:54 48.70620 6.07796 36086 ft 446 kts 357°
2026-05-08 19:54 48.76908 6.08096 36086 ft 446 kts 357°
2026-05-08 19:55 48.83102 6.08382 36082 ft 445 kts 357°
2026-05-08 19:55 48.89298 6.08675 36082 ft 445 kts 357°
2026-05-08 19:56 48.95490 6.08978 36095 ft 445 kts 358°
2026-05-08 19:56 49.01732 6.09279 36082 ft 446 kts 358°
2026-05-08 19:57 49.07939 6.09565 36076 ft 446 kts 358°
2026-05-08 19:57 49.14144 6.09860 36074 ft 446 kts 358°
2026-05-08 19:58 49.20351 6.10136 36083 ft 446 kts 358°
2026-05-08 19:58 49.26557 6.10394 36078 ft 447 kts 358°
2026-05-08 19:59 49.32770 6.10666 36084 ft 447 kts 358°
2026-05-08 19:59 49.38981 6.10937 36106 ft 447 kts 359°
2026-05-08 20:00 49.45202 6.11207 36099 ft 447 kts 359°
2026-05-08 20:00 49.51424 6.11478 36101 ft 447 kts 359°
2026-05-08 20:01 49.57686 6.11751 36106 ft 447 kts 359°
2026-05-08 20:01 49.63917 6.12013 36105 ft 448 kts 359°
2026-05-08 20:02 49.70155 6.12274 36101 ft 448 kts 359°
2026-05-08 20:02 49.76397 6.12551 36097 ft 449 kts 359°
2026-05-08 20:03 49.82642 6.12840 36101 ft 449 kts
2026-05-08 20:03 49.88762 6.14865 36096 ft 455 kts 19°
2026-05-08 20:04 49.94548 6.18896 36101 ft 456 kts 22°
2026-05-08 20:04 50.00314 6.23009 36110 ft 457 kts 22°
2026-05-08 20:05 50.06064 6.27227 36114 ft 457 kts 23°
2026-05-08 20:05 50.11808 6.31475 36113 ft 457 kts 23°
2026-05-08 20:06 50.17590 6.35738 36129 ft 457 kts 23°
2026-05-08 20:06 50.23337 6.39972 36129 ft 457 kts 23°
2026-05-08 20:07 50.29082 6.44214 36128 ft 457 kts 23°
2026-05-08 20:07 50.34826 6.48487 36125 ft 457 kts 25°
2026-05-08 20:08 50.40246 6.53778 36115 ft 460 kts 32°
2026-05-08 20:08 50.45582 6.59329 36114 ft 461 kts 32°
2026-05-08 20:09 50.50919 6.64899 36118 ft 461 kts 32°
2026-05-08 20:09 50.56265 6.70485 36115 ft 461 kts 32°
2026-05-08 20:10 50.61649 6.76133 36119 ft 462 kts 32°
2026-05-08 20:10 50.67020 6.81678 36124 ft 461 kts 27°
2026-05-08 20:11 50.72932 6.85172 36131 ft 455 kts
2026-05-08 20:11 50.79235 6.85629 36127 ft 451 kts 355°
2026-05-08 20:12 50.85543 6.85115 36127 ft 451 kts 355°
2026-05-08 20:12 50.91858 6.84613 36126 ft 451 kts 354°
2026-05-08 20:13 50.98125 6.83980 36123 ft 452 kts 359°
2026-05-08 20:13 51.04414 6.84522 35956 ft 455 kts
2026-05-08 20:14 51.07461 6.85906 35710 ft 457 kts 20°
2026-05-08 20:14 51.10334 6.88230 35467 ft 459 kts 31°
2026-05-08 20:14 51.12891 6.91290 35228 ft 461 kts 40°
2026-05-08 20:14 51.15098 6.95009 34993 ft 463 kts 50°
2026-05-08 20:15 51.17051 6.99091 34754 ft 463 kts 51°
2026-05-08 20:15 51.18983 7.03176 34516 ft 462 kts 51°
2026-05-08 20:15 51.20907 7.07275 34289 ft 462 kts 51°
2026-05-08 20:15 51.22856 7.11442 33920 ft 462 kts 51°
2026-05-08 20:16 51.24778 7.15560 32915 ft 465 kts 51°
2026-05-08 20:16 51.26721 7.19731 31774 ft 469 kts 52°
2026-05-08 20:16 51.28650 7.23875 30776 ft 459 kts 52°
2026-05-08 20:16 51.30550 7.27911 29622 ft 452 kts 49°
2026-05-08 20:17 51.32799 7.31349 28275 ft 445 kts 34°
2026-05-08 20:17 51.34573 7.33079 27421 ft 440 kts 24°
2026-05-08 20:17 51.37445 7.34641 26217 ft 436 kts
2026-05-08 20:17 51.40468 7.34953 25064 ft 438 kts 354°
2026-05-08 20:18 51.43501 7.34026 23943 ft 438 kts 343°
2026-05-08 20:18 51.46406 7.32765 22708 ft 441 kts 343°
2026-05-08 20:18 51.49433 7.31450 21425 ft 448 kts 344°
2026-05-08 20:18 51.52665 7.30053 20116 ft 452 kts 344°
2026-05-08 20:19 51.55549 7.28814 18982 ft 442 kts 344°
2026-05-08 20:19 51.58592 7.27508 17760 ft 431 kts 344°
2026-05-08 20:19 51.61344 7.26324 16620 ft 421 kts 344°
2026-05-08 20:19 51.64109 7.25134 16128 ft 397 kts 344°
2026-05-08 20:20 51.66682 7.24027 15881 ft 371 kts 344°
2026-05-08 20:20 51.69125 7.22973 15370 ft 356 kts 344°
2026-05-08 20:20 51.71482 7.21951 14771 ft 346 kts 343°
2026-05-08 20:20 51.73774 7.20954 14170 ft 338 kts 343°
2026-05-08 20:21 51.76021 7.19977 13532 ft 331 kts 344°
2026-05-08 20:21 51.78225 7.19014 12868 ft 324 kts 344°
2026-05-08 20:21 51.80385 7.18069 12222 ft 319 kts 344°
2026-05-08 20:21 51.82509 7.17143 11588 ft 313 kts 343°
2026-05-08 20:22 51.84593 7.16232 10975 ft 309 kts 344°
2026-05-08 20:22 51.86654 7.15326 10363 ft 305 kts 345°
2026-05-08 20:22 51.88689 7.14430 9700 ft 302 kts 344°
2026-05-08 20:22 51.90736 7.13535 8972 ft 299 kts 344°
2026-05-08 20:23 51.92729 7.12666 8337 ft 294 kts 344°
2026-05-08 20:23 51.94668 7.11906 7993 ft 279 kts 351°
2026-05-08 20:23 51.96558 7.11544 7522 ft 269 kts 347°
2026-05-08 20:23 51.98377 7.10985 6978 ft 265 kts 358°
2026-05-08 20:24 52.00141 7.11594 6544 ft 258 kts 26°
2026-05-08 20:24 52.01484 7.13415 6138 ft 249 kts 54°
2026-05-08 20:24 52.02210 7.15933 5752 ft 240 kts 70°
2026-05-08 20:24 52.02749 7.18441 5505 ft 229 kts 70°
2026-05-08 20:25 52.03259 7.20803 5376 ft 214 kts 70°
2026-05-08 20:25 52.03741 7.23029 5264 ft 203 kts 70°
2026-05-08 20:25 52.04197 7.25136 5148 ft 194 kts 70°
2026-05-08 20:25 52.04643 7.27199 5020 ft 192 kts 70°
2026-05-08 20:26 52.05082 7.29237 4936 ft 191 kts 70°
2026-05-08 20:26 52.05531 7.31316 4734 ft 191 kts 70°
2026-05-08 20:26 52.05958 7.33300 4504 ft 188 kts 70°
2026-05-08 20:26 52.06384 7.35283 4253 ft 185 kts 70°
2026-05-08 20:27 52.06823 7.37325 3990 ft 184 kts 71°
2026-05-08 20:27 52.07233 7.39233 3752 ft 183 kts 71°
2026-05-08 20:27 52.07652 7.41185 3511 ft 182 kts 72°
2026-05-08 20:27 52.08067 7.43122 3257 ft 181 kts 72°
2026-05-08 20:28 52.08481 7.45055 3010 ft 180 kts 72°
2026-05-08 20:28 52.08891 7.46973 2780 ft 179 kts 72°
2026-05-08 20:28 52.09295 7.48866 2526 ft 175 kts 72°
2026-05-08 20:28 52.09688 7.50705 2312 ft 168 kts 73°
2026-05-08 20:29 52.10061 7.52453 2095 ft 159 kts 73°
2026-05-08 20:29 52.10419 7.54128 1885 ft 150 kts 73°
2026-05-08 20:29 52.10754 7.55699 1684 ft 141 kts 74°
2026-05-08 20:29 52.11069 7.57183 1489 ft 138 kts 74°
2026-05-08 20:30 52.11381 7.58652 1305 ft 137 kts 74°
2026-05-08 20:30 52.11689 7.60104 1109 ft 135 kts 73°
2026-05-08 20:30 52.11999 7.61559 914 ft 137 kts 72°
2026-05-08 20:30 52.12313 7.63030 734 ft 138 kts 71°
2026-05-08 20:31 52.12626 7.64510 537 ft 139 kts 71°
2026-05-08 20:31 52.12939 7.65992 325 ft 138 kts 70°
2026-05-08 20:31 52.13252 7.67471 173 ft 131 kts 71°
2026-05-08 20:31 52.13488 7.68591 167 ft 70 kts 71°
2026-05-08 20:32 52.13620 7.69211 169 ft 43 kts 70°
2026-05-08 20:32 52.13693 7.69552 169 ft 29 kts 71°
2026-05-08 20:32 52.13757 7.69859 167 ft 24 kts 70°
2026-05-08 20:32 52.13743 7.70012 167 ft 13 kts 149°
2026-05-08 20:33 52.13661 7.70041 167 ft 11 kts 188°
2026-05-08 20:33 52.13607 7.69972 167 ft 9 kts 240°
2026-05-08 20:33 52.13585 7.69880 167 ft 8 kts 251°
2026-05-08 20:33 52.13568 7.69798 167 ft 7 kts 251°
2026-05-08 20:34 52.13546 7.69694 167 ft 12 kts 251°
2026-05-08 20:34 52.13512 7.69535 167 ft 17 kts 251°
2026-05-08 20:34 52.13417 7.69235 167 ft 11 kts 185°
2026-05-08 20:35 52.13352 7.69260 167 ft 9 kts 161°
2026-05-08 20:35 52.13296 7.69295 167 ft 8 kts 158°
2026-05-08 20:35 52.13251 7.69322 167 ft 6 kts 169°
2026-05-08 20:35 52.13222 7.69291 167 ft 5 kts 242°
2026-05-08 20:36 52.13206 7.69249 167 ft 5 kts 223°
2026-05-08 20:36 52.13161 7.69224 167 ft 7 kts 197°
2026-05-08 20:36 52.13134 7.69210 167 ft 2 kts 198°
2026-05-08 20:36 52.13133 7.69209 167 ft 0 kts 198°